Flag for Germany Weather past 2 weeks in Neu-Ulm, Bavaria, Germany

54 °F

Partly cloudy.

Feels Like: 52 °F
Forecast: 47 / 58 °F
Wind: 7 mph from Southwest

Location: Laupheim Airport

Current Time: Oct 7, 2015 at 7:12:51 AM

Latest Report: Oct 7, 2015 at 6:20 AM

Visibility: N/A

Pressure: 29.86 "Hg

Humidity: 94%

Dew point: 52 °F

Location of Neu-UlmLocation

Historic Weather in Neu-Ulm — Graph


Neu-Ulm temperature yesterday

Maximum temperature yesterday: 68 °F (at 1:20 PM)
Minimum temperature yesterday: 54 °F (at 8:20 AM)
Average temperature yesterday: 59 °F

Past Weeks' High & Low Weather Summary

High70 °F (Oct 3, 4:20 PM)100% (Oct 4, 11:20 PM)30.48 "Hg (Oct 4, 11:20 PM)
Low37 °F (Sep 28, 6:20 AM)36% (Oct 1, 4:20 PM)29.68 "Hg (Sep 22, 5:20 PM)
Average52 °F74%30.13 "Hg
* Reported Sep 22 5:20 AM — Oct 7 5:20 AM, Neu-Ulm, Weather by CustomWeather, © 2015

Note: Actual official high and low records may vary slightly from our data, if they occured in-between our weather recording intervals... More about our weather records


Neu-Ulm weather history for previous 24 hours

Time TempWeatherWind HumidityBarometerVisibility
5:20 AM
Wed, Oct 7
55 °FSprinkles. Partly cloudy.7 mph88%29.86 "HgN/A
4:20 AM55 °FPassing clouds.6 mph94%29.86 "HgN/A
3:20 AM55 °FSprinkles. Partly cloudy.6 mph88%29.86 "HgN/A
2:20 AM55 °FPassing clouds.5 mph88%29.83 "HgN/A
1:20 AM55 °FPartly cloudy.6 mph88%29.83 "HgN/A
12:20 AM55 °FPassing clouds.6 mph88%29.83 "HgN/A
11:20 PM
Tue, Oct 6
55 °FSprinkles. Partly cloudy.3 mph94%29.83 "HgN/A
10:20 PM55 °FPassing clouds.3 mph94%29.83 "HgN/A
10:00 PM55 °FPartly cloudy.5 mph94%29.83 "HgN/A
9:20 PM57 °FSprinkles. Partly cloudy.5 mph88%29.83 "HgN/A
8:20 PM57 °FPartly cloudy.8 mph88%29.83 "HgN/A
7:20 PM57 °FLight rain. Broken clouds.6 mph94%29.80 "HgN/A
6:20 PM59 °FLight rain. Broken clouds.6 mph88%29.80 "HgN/A
5:20 PM57 °FRain. Partly sunny.13 mph94%29.77 "Hg6 mi
4:20 PM68 °FThundershowers. Broken clouds.1 mph69%29.74 "HgN/A
3:20 PM68 °FScattered showers. Broken clouds.3 mph69%29.74 "HgN/A
2:20 PM68 °FScattered showers. Broken clouds.3 mph69%29.74 "HgN/A
1:20 PM68 °FPartly sunny.3 mph69%29.74 "HgN/A
12:20 PM66 °FBroken clouds.3 mph68%29.74 "HgN/A
11:20 AM63 °FBroken clouds.2 mph77%29.77 "HgN/A
10:20 AM61 °FPartly sunny.2 mph83%29.77 "Hg6 mi
9:20 AM59 °FPartly sunny.1 mph82%29.80 "Hg5 mi
8:20 AM54 °FFog.1 mph94%29.80 "Hg4 mi
7:20 AM55 °FFog.5 mph94%29.80 "Hg4 mi
Weather by CustomWeather, © 2015

See weather overviewHow to use our weather pages